Flag for Micronesia Weather past 2 weeks in Weno, Truk, Micronesia

Now
89 °F

Partly sunny.


Feels Like: 108 °F
Forecast: 79 / 87 °F
Wind: 5 mph from North

Location: Truk Intl / Moen Island

Current Time: Sep 19, 2014 at 10:11:27 AM

Latest Report: Sep 19, 2014 at 8:50 AM


Visibility: 15 mi

Pressure: 29.83 "Hg

Humidity: 80%

Dew point: 82 °F

Location of WenoLocation

Historic Weather in Weno — Graph

°F

Weno temperature yesterday

Maximum temperature yesterday: 89 °F (at 10:50 AM)
Minimum temperature yesterday: 79 °F (at 5:55 AM)
Average temperature yesterday: 84 °F

Past Weeks' High & Low Weather Summary

 TemperatureHumidityPressure
High91 °F (Sep 16, 1:50 PM)100% (Sep 6, 7:52 PM)29.93 "Hg (Sep 6, 7:52 PM)
Low75 °F (Sep 10, 7:55 AM)72% (Sep 7, 2:50 PM)29.69 "Hg (Sep 4, 2:50 PM)
Average82 °F89%29.81 "Hg
* Reported Sep 4 8:50 AM — Sep 19 8:50 AM, Weno, Weather by CustomWeather, © 2014

Note: Actual official high and low records may vary slightly from our data, if they occured in-between our weather recording intervals... More about our weather records

Advertising

Weno weather history for previous 24 hours

 ConditionsComfort  
Time TempWeatherWind HumidityBarometerVisibility
8:50 AM
Sep 19
89 °FPartly sunny.5 mph80%29.83 "Hg15 mi
7:53 AM86 °FPartly sunny.3 mph86%29.83 "Hg15 mi
6:52 AM84 °FBroken clouds.5 mph89%29.80 "Hg15 mi
5:50 AM81 °FBroken clouds.3 mph92%29.79 "Hg15 mi
4:50 AM80 °FPartly cloudy.3 mph93%29.78 "Hg15 mi
3:50 AM83 °FMostly cloudy.5 mph88%29.78 "Hg15 mi
2:57 AM82 °FMostly cloudy.3 mph91%29.78 "Hg15 mi
1:55 AM82 °FMostly cloudy.3 mph90%29.78 "Hg15 mi
12:50 AM83 °FMostly cloudy.7 mph87%29.80 "Hg15 mi
11:50 PM
Sep 18
83 °FMostly cloudy.3 mph89%29.82 "Hg15 mi
10:50 PM83 °FMostly cloudy.3 mph87%29.84 "Hg15 mi
9:50 PM83 °FMostly cloudy.5 mph88%29.84 "Hg15 mi
8:50 PM84 °FMostly cloudy.7 mph89%29.83 "Hg15 mi
7:50 PM83 °FMostly cloudy.5 mph88%29.83 "Hg15 mi
6:53 PM84 °FPassing clouds.8 mph87%29.80 "Hg15 mi
5:51 PM85 °FMostly cloudy.8 mph87%29.78 "Hg15 mi
4:50 PM86 °FMore clouds than sun.9 mph83%29.75 "Hg15 mi
3:54 PM88 °FCloudy.9 mph81%29.74 "Hg15 mi
2:50 PM89 °FMore clouds than sun.10 mph79%29.75 "Hg15 mi
1:53 PM88 °FMore clouds than sun.12 mph80%29.76 "Hg15 mi
12:52 PM89 °FMore clouds than sun.12 mph76%29.78 "Hg15 mi
10:50 AM89 °FBroken clouds.12 mph80%29.84 "Hg15 mi
Weather by CustomWeather, © 2014

See weather overviewHow to use our weather pages